Theta_e
307 311 314 312 314 313 313 311 310 309 311 310 309 307 309 307 305 305 305 306 314 323 325 327 329 330 331 332 332 333 332 332 332 331 330 329 329 329 328 327 326 326 325 325
308 312 309 309 307 308 308 310 310 308 307 307 308 307 307 305 306 305 305 304 305 308 312 318 324 328 330 331 331 332 332 332 332 332 331 330 329 329 328 327 326 326 326 326
310 309 307 308 307 307 307 307 308 310 307 306 307 307 307 307 304 304 303 304 304 306 308 308 310 318 326 329 330 331 331 331 332 331 331 330 329 329 328 327 327 326 326 326
308 306 307 307 308 307 308 306 307 307 308 309 305 309 307 306 305 304 305 304 305 305 305 305 305 307 313 320 326 328 329 331 331 331 330 330 329 329 329 329 328 327 326 326
309 305 306 308 307 306 308 304 306 307 306 305 304 305 305 304 304 304 304 303 305 306 307 305 304 307 308 311 315 319 323 327 328 330 330 330 329 330 329 329 329 329 327 326
306 304 306 307 305 306 303 304 303 301 303 307 305 306 306 305 306 306 305 304 306 306 302 301 303 305 306 307 306 307 311 318 324 327 328 329 329 329 329 329 328 328 328 327
305 305 304 303 304 303 304 307 309 309 308 309 303 303 308 306 304 304 306 305 302 300 300 299 298 299 302 304 305 306 307 313 317 324 327 327 328 328 328 328 328 328 328 328
310 310 304 303 305 305 305 307 309 310 308 306 302 306 307 304 303 302 302 301 301 300 302 302 300 299 301 303 304 304 306 314 319 323 326 327 328 328 329 328 327 328 329 329
309 307 304 305 304 306 305 306 305 305 293 304 304 302 302 304 304 302 301 301 302 300 300 303 302 302 304 305 306 306 307 310 316 322 326 326 327 327 328 327 327 328 328 328
305 308 306 306 305 305 305 305 308 306 305 306 304 303 305 305 304 302 302 301 300 299 300 302 302 304 307 308 309 309 309 311 315 319 323 325 325 326 326 326 326 326 326 326
304 307 307 306 306 306 305 306 305 306 307 308 304 304 300 303 302 302 301 300 301 300 300 301 302 305 307 309 310 311 311 311 311 311 312 314 317 320 323 324 323 323 323 323
305 307 308 307 306 305 306 306 307 309 306 303 304 306 301 300 301 301 300 301 300 300 299 300 302 304 305 308 311 312 312 312 312 311 310 310 309 307 307 307 312 317 318 319
307 308 308 310 308 306 306 304 306 303 304 305 307 308 301 298 300 302 300 301 300 300 301 300 301 302 304 306 309 311 312 313 313 313 313 313 312 311 310 310 313 315 317 318
308 307 311 311 308 306 308 306 304 306 307 307 307 307 305 305 305 304 304 302 301 298 298 299 300 301 303 306 308 310 311 312 312 312 312 312 312 312 313 313 314 315 316 317
308 311 307 305 306 307 308 308 306 307 308 307 308 306 304 302 302 304 303 305 304 300 298 297 299 300 302 304 305 307 309 310 310 310 310 310 311 313 313 313 314 315 314 314
305 306 305 305 305 305 306 307 307 307 307 307 307 304 303 304 300 300 301 302 303 304 301 298 297 298 301 303 305 306 307 308 309 309 309 310 310 311 312 311 312 312 311 311
307 305 304 310 306 306 306 307 306 307 306 307 307 307 303 303 301 302 302 301 301 301 301 300 300 299 301 303 305 306 305 307 308 310 309 309 309 309 309 309 309 308 309 309
309 308 306 305 304 309 308 304 306 306 306 306 307 305 303 303 302 301 300 301 300 298 299 299 299 302 304 303 304 304 305 306 308 309 308 308 307 307 307 308 308 308 306 304
306 308 306 307 297 304 307 304 302 304 307 305 305 306 303 302 302 301 299 298 300 300 299 299 301 302 302 303 304 304 304 305 306 308 308 309 308 307 307 306 305 304 304 304
305 307 310 297 310 309 305 305 300 302 307 304 304 305 303 300 306 307 303 300 298 297 299 299 299 300 301 301 302 302 303 303 304 306 308 308 307 307 307 307 306 305 304 304
307 306 310 299 310 304 303 301 302 307 307 304 302 303 303 303 306 302 301 300 299 298 299 299 298 299 299 300 300 301 301 301 304 304 304 305 304 304 305 305 304 303 300 298
310 311 311 307 309 311 300 301 306 306 304 303 302 301 299 299 300 301 299 298 297 296 297 297 297 297 298 299 299 299 299 301 301 302 303 303 303 304 304 303 302 298 297 295
307 307 306 310 309 303 298 304 301 300 302 303 303 302 299 299 300 299 297 296 294 293 294 294 294 295 296 297 297 297 297 298 299 300 302 302 302 302 301 300 297 294 293 292
305 302 304 305 304 303 300 300 301 301 301 300 300 300 301 300 299 296 295 293 292 291 290 291 293 292 293 294 296 297 298 297 298 299 299 299 299 297 296 296 295 294 291 290
303 303 298 299 301 303 302 300 299 297 296 295 294 295 297 296 294 294 292 291 289 289 288 289 289 290 290 292 294 296 297 297 297 297 297 296 296 295 293 293 294 293 293 292
299 302 307 307 302 304 303 298 296 296 296 294 293 291 290 292 292 290 289 287 287 285 287 288 288 289 289 291 292 293 293 294 296 294 293 293 292 292 292 291 289 290 290 289
Wind_Speed
5 6 10 10 12 4 5 4 5 3 4 3 7 9 13 6 5 7 8 8 9 13 14 21 24 29 30 28 31 33 33 34 33 32 30 29 30 28 26 24 22 22 21 20
5 15 6 9 7 6 3 3 4 3 1 3 4 10 10 5 7 7 10 9 12 7 6 15 23 26 31 34 35 34 37 37 36 36 36 32 33 31 29 27 25 25 24 23
10 8 10 9 6 7 4 5 4 5 2 2 3 7 9 8 5 6 7 9 6 12 13 12 20 31 32 35 39 40 39 39 38 38 35 33 26 26 27 29 28 28 28 26
5 5 12 7 7 7 7 6 4 4 2 4 1 6 5 8 11 6 11 9 14 13 13 10 15 24 36 41 39 39 39 41 40 40 37 36 30 27 30 33 33 31 29 29
10 10 10 11 10 9 7 6 6 3 2 2 2 3 7 3 5 9 12 15 16 17 17 15 18 31 33 34 36 38 38 39 39 41 40 38 32 30 30 31 31 31 29 26
5 1 10 11 4 8 10 7 6 4 2 4 7 7 5 6 9 8 10 14 18 16 7 8 17 22 28 27 30 32 33 37 36 38 39 39 35 33 31 32 30 29 27 25
3 2 2 6 8 4 5 7 1 1 1 6 1 2 10 7 10 9 12 10 7 7 7 7 8 15 25 26 29 29 30 32 33 35 37 39 38 34 35 31 31 30 27 26
12 7 9 5 8 9 9 8 5 7 4 4 1 7 6 9 11 8 9 8 4 6 5 7 8 13 15 17 18 22 25 28 28 29 31 31 32 32 31 27 29 28 28 26
11 6 1 3 5 11 5 7 8 6 2 3 5 7 9 12 15 4 10 5 10 9 7 7 7 6 9 10 12 16 18 21 23 24 22 24 25 25 26 27 26 24 23 21
6 5 2 3 6 4 9 12 5 1 3 4 5 5 7 6 9 7 9 8 8 8 6 3 3 6 4 7 9 10 10 12 15 19 21 22 23 23 24 24 23 20 19 19
6 5 2 5 8 11 4 7 2 5 5 5 1 6 9 9 5 6 7 7 8 7 6 6 4 3 4 4 6 7 9 11 13 13 14 16 19 23 24 24 22 19 19 19
2 5 4 6 1 2 2 7 11 8 5 2 3 8 5 8 5 4 8 6 4 4 5 5 6 7 7 8 9 10 10 10 10 11 12 13 14 16 17 20 21 21 18 17
7 1 4 4 3 2 9 2 11 6 3 7 5 9 2 6 6 4 6 5 3 4 5 4 5 8 11 10 10 10 10 9 10 10 10 9 9 9 11 13 14 16 17 17
12 3 7 11 3 8 6 8 7 7 3 7 18 11 3 6 4 3 3 6 5 7 8 6 6 8 13 14 14 14 13 12 11 12 11 11 11 11 12 14 15 16 17 18
7 17 3 4 3 8 5 11 14 18 29 12 25 18 10 9 7 4 4 3 4 6 7 7 7 7 15 18 18 18 17 16 16 15 14 12 12 13 14 15 16 18 18 19
3 1 4 3 1 4 4 11 21 28 24 26 19 7 3 12 4 5 6 7 8 6 7 8 8 10 17 24 25 21 20 21 20 18 17 16 16 16 17 18 19 19 20 20
7 6 4 10 3 6 3 24 20 21 19 23 22 10 7 6 9 11 11 8 9 8 9 9 11 13 21 27 26 27 27 24 23 21 20 20 20 20 21 21 21 22 23 23
16 13 3 4 2 6 16 14 20 22 19 23 24 4 9 10 11 10 8 10 9 8 10 11 10 17 22 22 20 21 23 26 25 24 23 24 24 25 25 25 25 25 24 23
4 7 3 6 4 7 16 7 8 8 22 15 19 18 5 4 3 10 9 10 14 14 12 12 13 16 18 16 17 21 25 28 27 29 29 29 30 29 28 27 25 24 23 22
6 5 5 3 11 16 9 14 7 10 21 11 16 17 15 11 14 15 11 10 11 11 11 11 10 9 9 9 14 21 26 29 33 35 35 32 30 28 28 26 25 23 23 24
5 2 17 4 9 10 6 3 13 10 6 8 8 10 12 14 20 3 5 3 3 3 2 4 5 6 7 7 12 22 25 32 33 30 31 29 29 29 27 26 25 24 24 24
12 12 8 5 9 21 5 4 14 10 5 5 5 6 8 7 2 3 4 6 6 4 5 4 3 2 1 3 11 17 22 24 23 24 27 31 31 31 30 29 26 26 27 27
4 7 6 12 11 1 6 7 1 2 4 3 4 4 2 7 4 3 4 4 3 4 3 4 4 2 2 1 7 13 12 14 15 22 28 29 29 28 28 28 28 28 29 30
3 4 4 3 6 6 8 4 3 2 4 5 3 4 4 5 3 5 4 4 4 5 7 8 5 5 3 2 2 6 9 12 16 22 23 24 26 25 25 27 29 31 32 32
4 9 6 3 3 4 2 6 7 4 5 8 7 5 4 7 4 4 5 5 5 7 9 10 8 5 5 3 2 2 7 13 19 21 23 25 25 26 26 27 29 31 32 34
1 4 8 7 10 5 5 9 7 7 6 7 9 6 5 6 7 5 6 7 7 10 10 11 10 8 7 5 4 4 7 12 17 19 21 23 23 24 25 26 24 27 28 29
Wind_Direction
174 169 189 170 200 193 156 149 192 224 227 172 211 234 263 218 232 226 238 233 232 225 236 230 227 223 223 226 227 226 228 228 225 222 224 227 226 226 227 233 241 241 241 242
132 205 177 159 186 155 149 177 237 299 120 156 273 259 247 200 229 217 221 224 232 238 211 221 222 222 222 225 227 228 230 229 226 225 225 221 224 227 231 235 237 242 243 242
175 177 163 155 158 160 163 165 191 212 20 229 315 269 234 240 220 235 240 240 223 225 239 229 210 219 222 223 226 228 229 229 229 227 223 224 227 229 231 232 237 238 241 243
178 158 159 152 174 140 176 203 167 181 101 234 91 279 272 234 234 212 235 234 241 230 235 235 210 216 223 228 228 230 231 230 230 226 219 218 215 217 225 232 238 238 240 242
193 153 153 179 178 154 208 147 150 121 149 359 313 298 278 6 262 250 238 235 233 238 227 216 213 229 231 231 230 232 231 229 228 224 220 218 218 225 230 238 240 241 242 244
165 138 164 179 118 145 146 84 55 56 81 266 205 194 246 203 215 224 233 229 228 235 230 243 232 237 238 234 233 233 232 233 229 226 223 222 221 223 228 235 236 240 242 244
125 190 152 130 96 53 107 113 41 307 235 232 352 236 257 263 244 220 242 260 239 237 253 250 232 223 230 227 225 226 224 226 228 226 224 225 227 228 233 233 235 238 240 243
166 205 176 180 161 158 168 153 159 196 205 252 22 239 242 237 276 260 229 241 251 243 257 267 255 230 221 222 221 220 217 218 219 220 224 226 230 230 234 237 240 244 247 251
172 198 11 148 133 141 187 192 163 110 55 36 229 289 290 268 270 274 275 219 237 258 248 258 256 231 206 197 195 208 209 216 219 215 212 220 229 231 233 240 245 252 252 253
180 115 353 139 97 42 175 148 138 111 175 255 274 274 234 281 263 314 270 247 255 243 225 243 264 230 177 187 177 181 186 198 207 213 215 217 220 225 231 235 238 241 242 239
143 98 193 148 208 167 137 180 128 133 170 182 252 258 217 227 270 280 287 255 230 240 217 195 199 210 191 169 185 171 184 190 194 202 209 217 224 227 228 229 232 233 233 232
189 112 144 186 237 196 204 176 176 188 208 241 132 253 225 218 224 213 265 280 246 213 193 187 179 177 176 189 188 192 192 191 190 192 201 209 219 222 222 223 220 218 217 220
174 160 91 41 325 184 214 214 189 103 92 198 156 258 204 208 231 232 244 265 253 182 169 165 168 191 194 199 198 199 194 192 190 189 187 185 190 191 188 188 192 197 198 201
158 128 158 197 215 133 174 187 173 167 181 201 230 220 322 244 229 213 245 235 217 197 184 188 201 205 205 204 203 200 201 198 198 198 196 188 176 178 177 180 179 181 181 182
148 207 122 44 162 161 175 182 184 197 225 194 250 227 212 238 189 219 223 182 210 209 195 201 205 214 214 211 208 206 206 201 203 202 195 195 189 184 180 179 179 179 183 181
39 237 105 6 28 138 170 191 199 212 217 234 246 263 222 224 250 220 208 209 233 232 243 211 212 216 218 213 211 209 209 206 201 195 193 196 196 189 184 182 182 181 180 179
143 124 109 225 155 102 340 217 206 223 215 228 233 237 183 223 238 259 266 260 251 219 223 222 216 216 220 219 211 211 210 203 198 199 191 194 191 191 191 189 187 186 184 184
180 180 131 161 103 199 249 165 203 214 219 223 245 198 190 204 226 236 229 232 240 231 230 229 224 226 234 227 216 218 209 207 202 199 195 192 190 190 188 187 187 188 187 188
143 160 132 150 211 297 271 196 146 167 251 224 235 240 197 203 264 255 234 224 230 232 237 230 235 225 223 218 217 210 205 206 202 203 198 196 193 190 191 193 195 195 194 194
73 161 182 136 211 224 292 188 152 115 266 184 210 221 211 178 231 235 229 233 242 243 263 279 273 260 258 242 213 203 205 202 207 208 206 200 199 200 202 202 203 202 204 199
153 132 206 178 220 261 245 173 139 190 237 192 181 217 219 205 224 198 226 168 74 76 347 298 261 261 267 255 218 209 208 209 217 212 206 203 205 206 207 208 207 206 198 189
172 176 197 199 227 250 151 65 176 228 219 148 139 169 190 223 197 130 60 53 38 23 16 3 349 348 311 233 213 216 217 222 221 214 209 205 205 205 206 208 201 198 191 185
208 187 177 199 211 302 180 191 133 153 153 119 131 138 160 140 201 119 129 110 62 34 12 3 2 3 17 203 206 217 231 227 219 204 199 198 199 201 203 201 193 189 190 187
230 162 190 126 191 198 201 163 181 153 127 122 119 109 96 139 115 96 93 72 62 28 21 15 38 63 41 20 221 215 209 201 197 192 191 191 193 195 199 201 198 194 191 190
181 151 163 278 359 18 318 199 163 132 103 100 70 72 108 126 93 78 71 51 59 51 37 29 23 33 48 67 102 163 188 186 185 187 187 190 195 195 195 201 201 203 204 202
269 172 197 214 198 174 201 136 141 127 130 120 117 93 49 81 97 92 68 49 46 59 58 57 51 49 43 46 69 119 169 186 184 181 186 191 193 196 197 195 195 205 212 207